This is the latest recevied weather packets stored in our database for station/object K2ATL. If no packets are shown the sender has not sent any weather packets the latest 10 day(s).
| Time | Temp. | Humidity | Pressure | Rain* | Wind** | Luminosity | Snow |
|---|---|---|---|---|---|---|---|
| 1777301892 | 15.56° C | 74% | 1105.8 hPa | 0 mm | - | 695 W/m² | - |
| 1777301589 | 15.56° C | 74% | 1105.7 hPa | 0 mm | - | 722 W/m² | - |
| 1777301286 | 15.56° C | 74% | 1105.7 hPa | 0 mm | - | 680 W/m² | - |
| 1777300983 | 14.44° C | 77% | 1105.7 hPa | 0 mm | - | 655 W/m² | - |
| 1777300681 | 14.44° C | 78% | 1105.6 hPa | 0 mm | - | 530 W/m² | - |
| 1777300378 | 15° C | 77% | 1105.4 hPa | 0 mm | - | 574 W/m² | - |
| 1777300075 | 13.89° C | 79% | 1105.6 hPa | 0 mm | - | 626 W/m² | - |
| 1777299772 | 13.89° C | 80% | 1105.5 hPa | 0 mm | - | 591 W/m² | - |
| 1777299469 | 14.44° C | 78% | 1105.5 hPa | 0 mm | - | 558 W/m² | - |
| 1777299167 | 14.44° C | 80% | 1105.5 hPa | 0 mm | - | 548 W/m² | - |
| 1777298864 | 13.89° C | 81% | 1105.6 hPa | 0 mm | - | 481 W/m² | - |
| 1777298560 | 13.89° C | 81% | 1105.6 hPa | 0 mm | - | 498 W/m² | - |
| 1777298257 | 12.78° C | 82% | 1105.5 hPa | 0 mm | - | 417 W/m² | - |
| 1777297953 | 13.33° C | 83% | 1105.6 hPa | 0 mm | - | 286 W/m² | - |
| 1777297649 | 13.33° C | 82% | 1105.5 hPa | 0 mm | - | 461 W/m² | - |
| 1777297347 | 12.78° C | 81% | 1105.5 hPa | 0 mm | - | 425 W/m² | - |
| 1777297044 | 13.89° C | 82% | 1105.4 hPa | 0 mm | - | 408 W/m² | - |
| 1777296740 | 12.78° C | 86% | 1105.5 hPa | 0 mm | - | 383 W/m² | - |
| 1777296436 | 12.78° C | 87% | 1105.3 hPa | 0 mm | - | 339 W/m² | - |
| 1777296132 | 12.78° C | 86% | 1105.1 hPa | 0 mm | - | 358 W/m² | - |
| 1777295829 | 13.33° C | 87% | 1104.9 hPa | 0 mm | - | 305 W/m² | - |
| 1777295527 | 13.33° C | 87% | 1105 hPa | 0 mm | - | 305 W/m² | - |
| 1777295224 | 12.78° C | 88% | 1104.9 hPa | 0 mm | - | 315 W/m² | - |
| 1777294922 | 12.78° C | 87% | 1105 hPa | 0 mm | - | 313 W/m² | - |
| 1777294622 | 12.78° C | 89% | 1104.9 hPa | 0 mm | - | 282 W/m² | - |
* Rain latest hour (hover to see other rain measurements)
** Current wind speed in m/s (hover to see current wind gust speed)